• In Austria
  • List of Countries
  • For 7 days
  • Water Temperature
  • Satellite Maps
  • Weather Map
  • News
  • Weather Widgets
  • user-avatar
    Login

    Hourly Weather Wlora

    Today, 25 February, Sunday

    Time Temperature Precipitation Wind Pressure Humidity
    00:00 +10°C° 0.1 mm 3 mps 755 mmHg 82%
    01:00 +9°C° 0 mm 3 mps 755 mmHg 81%
    02:00 +9°C° 0.1 mm 3 mps 755 mmHg 80%
    03:00 +9°C° 0.1 mm 3 mps 755 mmHg 79%
    04:00 +9°C° 0.1 mm 3 mps 755 mmHg 78%
    05:00 +8°C° 0.2 mm 4 mps 755 mmHg 78%
    06:00 +8°C° 0.2 mm 4 mps 755 mmHg 78%
    07:00 +8°C° 0 mm 4 mps 754 mmHg 82%
    08:00 +10°C° 0.3 mm 5 mps 754 mmHg 80%
    09:00 +12°C° 0.3 mm 5 mps 754 mmHg 78%
    10:00 +13°C° 0.3 mm 5 mps 754 mmHg 75%
    11:00 +13°C° 0.6 mm 5 mps 754 mmHg 76%
    12:00 +12°C° 0.6 mm 5 mps 754 mmHg 77%
    13:00 +12°C° 0 mm 5 mps 754 mmHg 80%
    14:00 +10°C° 1.4 mm 5 mps 753 mmHg 84%
    15:00 +10°C° 1.4 mm 5 mps 753 mmHg 88%
    16:00 +10°C° 1.4 mm 4 mps 753 mmHg 92%
    17:00 +10°C° 2 mm 4 mps 752 mmHg 91%
    18:00 +10°C° 2 mm 4 mps 752 mmHg 90%
    19:00 +10°C° 2 mm 4 mps 751 mmHg 89%
    20:00 +8°C° 4.3 mm 5 mps 751 mmHg 88%
    21:00 +8°C° 4.3 mm 6 mps 750 mmHg 86%
    22:00 +8°C° 4.3 mm 7 mps 749 mmHg 85%
    23:00 +6°C° 7.5 mm 8 mps 749 mmHg 84%

    Tomorrow, 26 February, Monday

    Time Temperature Precipitation Wind Pressure Humidity
    00:00 +6°C° 7.5 mm 8 mps 748 mmHg 83%
    01:00 +6°C° 7.5 mm 9 mps 748 mmHg 82%
    02:00 +5°C° 1.6 mm 9 mps 748 mmHg 83%
    03:00 +5°C° 1.6 mm 9 mps 748 mmHg 84%
    04:00 +5°C° 1.6 mm 9 mps 748 mmHg 85%
    05:00 +5°C° 0.8 mm 9 mps 748 mmHg 85%
    06:00 +3°C° 0.8 mm 9 mps 749 mmHg 85%
    07:00 +3°C° 0.8 mm 9 mps 749 mmHg 85%
    08:00 +5°C° 0.4 mm 8 mps 749 mmHg 83%
    09:00 +5°C° 0.4 mm 7 mps 749 mmHg 81%
    10:00 +7°C° 0.4 mm 6 mps 750 mmHg 79%
    11:00 +7°C° 0.1 mm 5 mps 749 mmHg 78%
    12:00 +8°C° 0.1 mm 4 mps 749 mmHg 77%
    13:00 +9°C° 0.1 mm 3 mps 749 mmHg 77%
    14:00 +9°C° 0.2 mm 3 mps 749 mmHg 77%
    15:00 +10°C° 0.2 mm 3 mps 749 mmHg 78%
    16:00 +10°C° 0.2 mm 3 mps 749 mmHg 78%
    17:00 +9°C° 0.4 mm 3 mps 749 mmHg 82%
    18:00 +8°C° 0.4 mm 3 mps 749 mmHg 86%
    19:00 +8°C° 0.4 mm 3 mps 749 mmHg 90%
    20:00 +7°C° 0.3 mm 4 mps 750 mmHg 91%
    21:00 +7°C° 0.3 mm 5 mps 750 mmHg 91%
    22:00 +5°C° 0.3 mm 6 mps 750 mmHg 92%
    23:00 +5°C° 0.3 mm 7 mps 751 mmHg 92%

    Day after tomorrow, 27 February, Tuesday

    Time Temperature Precipitation Wind Pressure Humidity
    00:00 +5°C° 0.3 mm 7 mps 751 mmHg 91%
    01:00 +5°C° 0.3 mm 7 mps 752 mmHg 90%
    02:00 +4°C° 0.2 mm 7 mps 752 mmHg 89%
    03:00 +4°C° 0.2 mm 6 mps 753 mmHg 88%
    04:00 +4°C° 0.2 mm 6 mps 753 mmHg 87%
    05:00 +5°C° 0.1 mm 5 mps 753 mmHg 86%
    06:00 +3°C° 0.1 mm 5 mps 754 mmHg 85%
    07:00 +4°C° 0.1 mm 4 mps 754 mmHg 84%
    08:00 +5°C° 0.1 mm 4 mps 755 mmHg 80%
    09:00 +5°C° 0.1 mm 4 mps 755 mmHg 76%
    10:00 +6°C° 0.1 mm 4 mps 755 mmHg 72%
    11:00 +7°C° 0 mm 3 mps 756 mmHg 69%
    12:00 +8°C° 0 mm 3 mps 756 mmHg 65%
    13:00 +8°C° 0 mm 2 mps 756 mmHg 62%
    14:00 +8°C° 0 mm 2 mps 756 mmHg 62%
    15:00 +8°C° 0 mm 2 mps 756 mmHg 62%
    16:00 +8°C° 0 mm 2 mps 756 mmHg 62%
    17:00 +7°C° 0 mm 2 mps 756 mmHg 66%
    18:00 +7°C° 0 mm 2 mps 756 mmHg 70%
    19:00 +5°C° 0 mm 3 mps 756 mmHg 74%
    20:00 +5°C° 0.2 mm 3 mps 756 mmHg 77%
    21:00 +5°C° 0.2 mm 3 mps 756 mmHg 79%
    22:00 +5°C° 0.2 mm 4 mps 756 mmHg 81%
    23:00 +5°C° 0.6 mm 4 mps 756 mmHg 83%

    28 February, Wednesday

    Time Temperature Precipitation Wind Pressure Humidity
    00:00 +5°C° 0.6 mm 4 mps 756 mmHg 86%
    01:00 +5°C° 0.6 mm 4 mps 755 mmHg 88%
    02:00 +5°C° 0.5 mm 4 mps 755 mmHg 89%
    03:00 +5°C° 0.5 mm 4 mps 755 mmHg 89%
    04:00 +4°C° 0.5 mm 4 mps 754 mmHg 90%
    05:00 +5°C° 0.2 mm 4 mps 755 mmHg 90%
    06:00 +5°C° 0.2 mm 3 mps 755 mmHg 90%
    07:00 +5°C° 0.2 mm 3 mps 755 mmHg 90%
    08:00 +5°C° 0.1 mm 4 mps 756 mmHg 90%
    09:00 +6°C° 0.1 mm 5 mps 756 mmHg 90%
    10:00 +5°C° 0.1 mm 6 mps 757 mmHg 89%
    11:00 +5°C° 0.2 mm 7 mps 757 mmHg 87%
    12:00 +6°C° 0.2 mm 8 mps 758 mmHg 85%
    13:00 +6°C° 0.2 mm 9 mps 758 mmHg 83%
    14:00 +5°C° 0 mm 8 mps 759 mmHg 79%
    15:00 +5°C° 0 mm 8 mps 760 mmHg 76%
    16:00 +4°C° 0 mm 8 mps 760 mmHg 73%
    17:00 +2°C° 0 mm 8 mps 761 mmHg 74%
    18:00 +2°C° 0 mm 7 mps 762 mmHg 75%
    19:00 +1°C° 0 mm 6 mps 763 mmHg 77%
    20:00 +1°C° 0 mm 6 mps 763 mmHg 77%
    21:00 +1°C° 0 mm 5 mps 764 mmHg 77%
    22:00 0°C° 0 mm 4 mps 764 mmHg 77%
    23:00 0°C° 0 mm 4 mps 764 mmHg 77%

    1 March, Thursday

    Time Temperature Precipitation Wind Pressure Humidity
    00:00 0°C° 0 mm 4 mps 765 mmHg 77%
    01:00 +1°C° 0 mm 3 mps 765 mmHg 77%
    02:00 +1°C° 0 mm 3 mps 764 mmHg 76%
    03:00 +1°C° 0 mm 3 mps 764 mmHg 75%
    04:00 +1°C° 0 mm 3 mps 764 mmHg 74%
    05:00 +3°C° 0 mm 2 mps 764 mmHg 71%
    06:00 +3°C° 0 mm 2 mps 764 mmHg 69%
    07:00 +4°C° 0 mm 2 mps 764 mmHg 67%
    08:00 +5°C° 0 mm 2 mps 764 mmHg 63%
    09:00 +5°C° 0 mm 3 mps 764 mmHg 59%
    10:00 +7°C° 0 mm 3 mps 764 mmHg 55%
    11:00 +7°C° 0 mm 4 mps 764 mmHg 56%
    12:00 +7°C° 0 mm 4 mps 763 mmHg 57%
    13:00 +8°C° 0 mm 5 mps 763 mmHg 58%
    14:00 +8°C° 0 mm 5 mps 762 mmHg 61%
    15:00 +8°C° 0 mm 6 mps 762 mmHg 64%
    16:00 +8°C° 0 mm 6 mps 762 mmHg 67%
    17:00 +8°C° 0 mm 7 mps 761 mmHg 70%
    18:00 +6°C° 0 mm 7 mps 761 mmHg 72%
    19:00 +5°C° 0 mm 8 mps 761 mmHg 75%
    20:00 +5°C° 0 mm 8 mps 761 mmHg 76%
    21:00 +5°C° 0 mm 9 mps 760 mmHg 77%
    22:00 +5°C° 0 mm 9 mps 760 mmHg 77%
    23:00 +5°C° 0 mm 10 mps 760 mmHg 77%

    2 March, Friday

    Time Temperature Precipitation Wind Pressure Humidity
    00:00 +6°C° 0 mm 10 mps 759 mmHg 77%
    01:00 +6°C° 0 mm 10 mps 759 mmHg 77%
    02:00 +6°C° 0 mm 10 mps 758 mmHg 77%
    03:00 +6°C° 0 mm 11 mps 757 mmHg 77%
    04:00 +6°C° 0 mm 11 mps 757 mmHg 77%
    05:00 +7°C° 0 mm 11 mps 757 mmHg 77%
    06:00 +7°C° 0 mm 11 mps 756 mmHg 77%
    07:00 +7°C° 0 mm 10 mps 756 mmHg 77%
    08:00 +9°C° 0 mm 11 mps 756 mmHg 73%
    09:00 +11°C° 0 mm 11 mps 756 mmHg 69%
    10:00 +13°C° 0 mm 11 mps 756 mmHg 66%
    11:00 +13°C° 0.1 mm 10 mps 755 mmHg 64%
    12:00 +14°C° 0.1 mm 10 mps 755 mmHg 63%
    13:00 +16°C° 0.1 mm 10 mps 754 mmHg 61%
    14:00 +15°C° 0.1 mm 9 mps 754 mmHg 64%
    15:00 +15°C° 0.1 mm 8 mps 754 mmHg 67%
    16:00 +15°C° 0.1 mm 7 mps 754 mmHg 70%
    17:00 +14°C° 0.4 mm 7 mps 754 mmHg 73%
    18:00 +12°C° 0.4 mm 7 mps 754 mmHg 77%
    19:00 +11°C° 0.4 mm 7 mps 755 mmHg 80%
    20:00 +11°C° 0.2 mm 7 mps 755 mmHg 81%
    21:00 +10°C° 0.2 mm 6 mps 755 mmHg 82%
    22:00 +10°C° 0.2 mm 6 mps 755 mmHg 83%
    23:00 +10°C° 0.3 mm 6 mps 755 mmHg 82%
    Show more